Lid_Strength_Index
-1 -1 -0 2 10 10 14 11 7 8 7 5 4 6 7 6 8 11 1 0 -0 0 -1 -1 -1 -1 -1 -1 -1 -1 -1 -1 -1 -2 -2 -1 -1 -1 -1 -1 -2 -1 -1 -2 -1 -1 -1 -1 -1
2 0 1 6 13 16 13 9 9 7 5 4 4 5 6 8 4 3 2 0 -0 -0 -1 -1 -1 -1 -1 -1 -1 -1 -1 -1 -1 -1 -1 -1 -1 -1 -2 -2 -2 -2 -2 -2 -2 -2 -2 -2 -1
3 0 5 10 12 14 11 9 9 6 5 5 6 4 5 6 3 2 1 0 -0 -0 -1 -1 -1 -1 -1 -1 -1 -1 -1 -1 -1 -1 -1 -1 -2 -2 -2 -2 -2 -2 -2 -2 -2 -2 -2 -2 -2
2 2 4 10 13 10 8 8 7 8 6 4 5 7 4 2 3 1 -0 -0 -0 -0 -1 -1 -1 -1 -1 -1 -2 -1 -1 -2 -2 -2 -1 -1 -1 -1 -1 -1 -1 -1 -1 -1 -1 -2 -2 -2 -2
2 4 8 11 10 7 6 6 6 7 7 6 5 7 6 2 1 0 0 -0 0 0 -1 -1 -2 -1 -1 -2 -2 -2 -2 -2 -2 -2 -2 -2 -1 -1 -1 -1 -1 -1 -1 -1 -1 -2 -2 -2 -2
5 5 9 10 8 6 5 5 6 6 5 5 6 6 5 1 1 1 -0 0 -0 -0 -1 -1 -1 -2 -2 -2 -2 -2 -2 -3 -3 -3 -2 -2 -2 -2 -1 -1 -1 -1 -1 -1 -1 -1 -1 -2 -2
6 6 9 9 8 7 6 5 7 7 6 6 4 7 5 3 1 0 0 -0 -0 -0 -0 -1 -1 -2 -2 -2 -3 -3 -2 -3 -3 -3 -3 -3 -2 -3 -1 -1 -2 -2 -1 -1 -1 -1 -1 -1 -1
4 5 8 8 9 8 5 5 5 6 6 3 3 7 7 3 1 0 0 0 0 0 -0 -0 -1 -1 -1 -1 -3 -3 -3 -3 -3 -3 -3 -3 -3 -4 -4 -3 -3 -2 -2 -2 -2 -1 -1 -1 -1
3 7 9 8 8 7 5 6 4 3 5 4 4 4 3 1 1 1 1 1 1 0 -0 -1 -1 -1 -1 -1 -2 -3 -4 -4 -3 -3 -3 -2 -1 -1 -2 -3 -2 -3 -2 -2 -2 -2 -2 -1 -1
6 7 8 5 5 6 5 5 5 6 6 6 5 3 2 2 2 2 3 2 2 1 0 -0 -1 -2 -2 -1 -2 -2 -1 -1 -2 -2 -2 -1 -1 -1 -2 -3 -4 -4 -3 -3 -3 -3 -2 -2 -1
6 8 5 5 4 4 5 5 6 8 7 6 6 4 3 2 2 3 3 2 2 1 0 -0 -1 -1 -1 -1 -1 -1 -1 -1 -2 -2 -2 -2 -1 -1 -1 -1 -1 -1 -3 -1 -1 -1 -1 -0 -1
7 5 5 4 4 5 5 4 6 5 5 3 3 3 3 3 3 2 2 2 1 1 0 -0 -1 -1 -1 -1 -1 -1 -1 -1 -1 -2 -2 -1 -0 -0 0 0 0 -1 -1 -1 -1 -1 -1 -1 -0
5 5 4 4 4 4 4 6 6 6 4 3 3 3 3 3 2 2 1 1 1 1 1 0 -0 -0 -1 -1 -2 -2 -1 -1 -2 -2 -1 -0 0 0 0 0 0 0 -0 -0 -0 -0 -0 -0 -0
5 5 5 4 5 4 6 6 5 5 3 4 4 3 3 3 2 2 2 2 1 1 1 -0 -0 -1 -1 -1 -2 -1 -1 -2 -2 -1 -1 -0 0 0 1 1 0 -0 0 0 -0 0 1 1 1
4 6 5 5 5 6 5 7 7 5 4 4 4 3 3 3 2 2 2 2 1 1 0 0 -0 -1 -1 -1 -1 -2 -1 -2 -1 -1 -0 0 0 1 2 1 0 1 1 0 1 1 1 1 1
6 6 10 8 6 5 6 11 6 4 5 5 4 4 3 3 2 2 1 1 1 1 1 0 0 1 -0 -1 -1 -1 -1 -1 -0 -0 0 1 1 1 2 2 2 2 2 2 1 1 2 1 1
7 12 13 12 7 7 7 12 7 4 5 5 4 4 4 3 3 2 1 1 1 1 1 1 1 2 1 -1 -1 -1 -2 -0 -0 -0 0 1 1 1 2 2 2 1 2 2 1 2 2 2 2
10 11 11 12 9 8 8 8 7 5 5 5 5 4 4 4 3 2 2 1 1 1 0 1 1 1 -0 -1 -1 -1 -1 0 -0 1 1 1 2 2 2 3 3 2 3 2 2 2 2 2 2
7 8 9 9 9 10 7 7 7 6 6 6 5 5 5 4 3 2 2 1 1 1 1 1 2 1 -0 0 1 1 1 0 0 1 1 1 2 2 3 3 2 2 2 2 2 2 3 3 2
7 8 8 7 6 7 7 7 6 6 6 5 5 5 5 4 4 3 2 2 2 2 1 2 1 0 -0 0 -0 -0 -1 0 1 1 1 1 1 1 3 2 2 2 2 2 2 2 3 2 2
7 8 8 8 7 6 7 8 7 6 6 5 5 4 4 4 4 4 3 2 2 2 2 2 0 -0 -0 -0 -0 0 -0 1 2 2 2 1 1 1 1 2 2 2 2 3 2 2 3 3 3
8 6 7 7 8 10 7 12 9 7 8 7 6 5 5 4 4 4 3 3 2 3 2 0 0 -0 -0 -0 0 1 2 3 3 3 2 2 1 1 1 1 1 1 2 2 2 2 2 2 4
7 6 6 7 8 8 8 10 10 8 9 8 6 5 5 4 4 4 3 3 3 3 1 1 0 -0 -1 -0 0 2 3 3 2 2 1 -0 0 1 1 1 1 2 2 2 2 1 2 1 3
5 6 6 7 8 11 10 12 13 11 9 8 6 6 5 4 4 4 3 3 3 2 1 2 1 0 -0 -0 1 1 3 2 3 2 2 2 2 1 0 1 1 1 1 2 2 1 1 1 1
6 8 11 12 13 16 11 13 14 10 7 7 6 6 5 5 4 4 4 4 3 2 2 2 1 1 0 0 1 2 2 1 2 2 2 1 1 2 1 1 1 1 1 1 1 1 1 1 2
7 8 11 15 17 14 11 14 13 7 5 5 5 5 5 5 4 4 3 3 2 2 3 3 2 1 1 1 1 1 1 2 2 1 1 1 1 1 -0 1 1 1 1 1 1 1 1 1 2
7 9 7 11 10 12 11 12 8 8 6 6 6 6 6 5 4 4 3 2 2 3 3 2 2 2 1 2 2 2 1 1 1 1 0 1 0 1 1 1 1 2 1 1 1 1 1 2 1
7 6 10 10 15 15 13 13 15 11 8 6 7 6 5 5 4 3 3 2 3 3 2 2 2 2 2 2 2 2 2 1 1 1 1 1 0 -0 0 1 1 1 2 1 1 1 1 1 1
8 8 8 9 10 14 17 16 9 9 7 7 7 6 5 5 4 3 3 2 3 3 3 2 2 2 2 2 2 2 2 2 1 1 2 1 1 0 1 1 1 2 2 2 2 1 2 2 2
6 7 8 11 12 12 12 13 6 7 6 6 6 5 5 4 4 3 3 2 3 3 3 3 2 2 2 2 2 2 2 2 1 1 1 1 1 2 2 1 1 2 3 2 2 3 2 2 2